EW7586 Weather Reports


time (UTC)temp
C
wind
direction
speed
KPH
gust
KPH
rain 1hr
cm
rain 24hr
cm
rain mn
cm
humidity
%
barometer
mb
20211017144916 8 117 0.0 4.8 0.00 0.00 0.00 43 1021.4
20211017144416 8 123 0.0 0.0 0.00 0.00 0.00 43 1021.3
20211017143915 8 96 0.0 0.0 0.00 0.00 0.00 43 1021.3
20211017143414 8 123 0.0 0.0 0.00 0.00 0.00 44 1021.4
20211017142914 8 123 0.0 0.0 0.00 0.00 0.00 44 1021.3
20211017142414 7 116 0.0 0.0 0.00 0.00 0.00 44 1021.4
20211017141915 7 116 0.0 0.0 0.00 0.00 0.00 44 1021.6
20211017141415 7 116 0.0 0.0 0.00 0.00 0.00 44 1021.4
20211017140915 7 116 0.0 0.0 0.00 0.00 0.00 44 1021.2
20211017140414 7 116 0.0 0.0 0.00 0.00 0.00 45 1021.3
20211017135915 7 116 0.0 3.2 0.00 0.00 0.00 45 1021.3
20211017135415 7 116 0.0 3.2 0.00 0.00 0.00 45 1021.3
20211017134910 8 116 0.0 1.6 0.00 0.00 0.00 45 1021.3
20211017134413 8 116 0.0 3.2 0.00 0.00 0.00 44 1021.3
20211017133910 8 116 1.6 3.2 0.00 0.00 0.00 44 1021.4
20211017133413 8 116 0.0 3.2 0.00 0.00 0.00 44 1021.4
20211017132914 8 116 0.0 0.0 0.00 0.00 0.00 42 1021.4
20211017132411 8 116 0.0 0.0 0.00 0.00 0.00 42 1021.4
20211017131910 9 116 0.0 0.0 0.00 0.00 0.00 42 1021.6
20211017131410 9 116 0.0 3.2 0.00 0.00 0.00 41 1021.4
20211017130909 9 116 0.0 4.8 0.00 0.00 0.00 41 1021.6
20211017130408 9 116 3.2 4.8 0.00 0.00 0.00 41 1021.8
20211017125909 9 116 3.2 6.4 0.00 0.00 0.00 41 1021.7
20211017125408 9 116 3.2 6.4 0.00 0.00 0.00 41 1021.7
20211017124908 9 106 3.2 4.8 0.00 0.00 0.00 42 1021.8
20211017124409 8 106 3.2 4.8 0.00 0.00 0.00 42 1021.9
20211017123910 8 94 3.2 3.2 0.00 0.00 0.00 43 1022.0
20211017123408 -17 0.0 0.0 0.00 0.00 0.00 1022.0
20211017122908 8 94 0.0 0.0 0.00 0.00 0.00 43 1022.0
20211017122406 8 94 0.0 0.0 0.00 0.00 0.00 43 1021.9
20211017121907 8 94 0.0 0.0 0.00 0.00 0.00 43 1022.0
20211017121406 9 116 3.2 4.8 0.00 0.00 0.00 43 1022.0
20211017120905 9 116 3.2 4.8 0.00 0.00 0.00 43 1022.0
20211017120405 8 96 3.2 4.8 0.00 0.00 0.00 43 1022.0
20211017115903 8 114 3.2 4.8 0.00 0.00 0.00 43 1022.0
20211017115404 8 107 1.6 4.8 0.00 0.00 0.00 44 1022.0
20211017114903 8 97 1.6 4.8 0.00 0.00 0.00 44 1022.0
20211017114403 8 89 0.0 1.6 0.00 0.00 0.00 43 1021.9
20211017113903 9 89 0.0 4.8 0.00 0.00 0.00 43 1021.9
20211017113402 9 89 0.0 8.0 0.00 0.00 0.00 43 1021.9
20211017112902 8 96 3.2 8.0 0.00 0.00 0.00 43 1021.9
20211017112403 8 102 3.2 6.4 0.00 0.00 0.00 43 1022.0
20211017111903 8 117 1.6 3.2 0.00 0.00 0.00 43 1022.0
20211017111401 8 117 0.0 4.8 0.00 0.00 0.00 44 1022.0
20211017110901 8 113 1.6 4.8 0.00 0.00 0.00 44 1022.1
20211017110401 8 113 3.2 4.8 0.00 0.00 0.00 44 1022.3
20211017105903 9 82 3.2 6.4 0.00 0.00 0.00 44 1022.3
20211017105400 9 114 3.2 6.4 0.00 0.00 0.00 42 1022.3
20211017104903 9 114 3.2 6.4 0.00 0.00 0.00 42 1022.3
20211017104401 10 114 3.2 6.4 0.00 0.00 0.00 42 1022.1
20211017103903 10 116 3.2 4.8 0.00 0.00 0.00 40 1022.1
20211017103400 10 83 3.2 4.8 0.00 0.00 0.00 40 1022.0
20211017102901 10 100 0.0 3.2 0.00 0.00 0.00 41 1022.1
20211017102401 10 78 1.6 4.8 0.00 0.00 0.00 40 1022.1
20211017101901 10 78 3.2 4.8 0.00 0.00 0.00 40 1022.1
20211017101401 10 116 1.6 6.4 0.00 0.00 0.00 41 1022.3
20211017100900 10 107 3.2 6.4 0.00 0.00 0.00 41 1022.4
20211017100401 10 109 3.2 4.8 0.00 0.00 0.00 41 1022.3
20211017095901 10 104 3.2 6.4 0.00 0.00 0.00 41 1022.4
20211017095401 10 100 3.2 6.4 0.00 0.00 0.00 41 1022.4
20211017094859 10 109 3.2 4.8 0.00 0.00 0.00 41 1022.4
20211017094401 9 111 3.2 6.4 0.00 0.00 0.00 41 1022.5
20211017093900 9 111 3.2 6.4 0.00 0.00 0.00 42 1022.6
20211017093400 9 117 3.2 4.8 0.00 0.00 0.00 42 1022.6
20211017092859 10 117 0.0 3.2 0.00 0.00 0.00 42 1022.7
20211017092400 10 117 0.0 3.2 0.00 0.00 0.00 41 1022.8
20211017091900 10 117 1.6 3.2 0.00 0.00 0.00 42 1023.0
20211017091359 10 117 0.0 4.8 0.00 0.00 0.00 42 1023.0
20211017090858 10 117 3.2 4.8 0.00 0.00 0.00 41 1023.1
20211017090359 10 104 3.2 4.8 0.00 0.00 0.00 41 1023.0
20211017085858 10 110 3.2 4.8 0.00 0.00 0.00 41 1023.1
20211017085359 10 110 3.2 4.8 0.00 0.00 0.00 41 1023.0
20211017084900 9 109 3.2 4.8 0.00 0.00 0.00 42 1023.1
20211017084359 9 103 4.8 4.8 0.00 0.00 0.00 42 1023.1
20211017083859 9 104 3.2 4.8 0.00 0.00 0.00 43 1023.2
20211017083359 9 104 3.2 4.8 0.00 0.00 0.00 43 1023.2
20211017082900 9 104 1.6 3.2 0.00 0.00 0.00 43 1023.2
20211017082358 10 104 3.2 4.8 0.00 0.00 0.00 43 1023.2
20211017081859 10 104 0.0 4.8 0.00 0.00 0.00 43 1023.2
20211017081358 10 93 3.2 4.8 0.00 0.00 0.00 43 1023.2
20211017080858 10 90 0.0 4.8 0.00 0.00 0.00 43 1023.4
20211017080358 10 90 3.2 4.8 0.00 0.00 0.00 43 1023.4
20211017075858 10 85 3.2 4.8 0.00 0.00 0.00 44 1023.4
20211017075356 9 86 3.2 6.4 0.00 0.00 0.00 45 1023.5
20211017074855 9 86 3.2 6.4 0.00 0.00 0.00 45 1023.5
20211017074356 9 92 3.2 4.8 0.00 0.00 0.00 45 1023.5
20211017073857 9 107 3.2 6.4 0.00 0.00 0.00 45 1023.7
20211017073356 9 56 1.6 6.4 0.00 0.00 0.00 46 1023.7
20211017072856 9 56 4.8 6.4 0.00 0.00 0.00 46 1023.5
20211017072357 9 83 3.2 4.8 0.00 0.00 0.00 46 1023.5
20211017071856 9 41 0.0 0.0 0.00 0.00 0.00 45 1023.8
20211017071354 9 41 0.0 0.0 0.00 0.00 0.00 45 1023.7
20211017070854 10 41 0.0 0.0 0.00 0.00 0.00 45 1023.8
20211017070355 10 30 0.0 0.0 0.00 0.00 0.00 45 1023.8
20211017065854 10 30 0.0 6.4 0.00 0.00 0.00 45 1023.9
20211017065354 10 30 3.2 6.4 0.00 0.00 0.00 45 1023.8
20211017064853 9 86 4.8 6.4 0.00 0.00 0.00 46 1023.9
20211017064352 9 86 4.8 6.4 0.00 0.00 0.00 46 1024.0
20211017063852 8 79 1.6 4.8 0.00 0.00 0.00 47 1024.1
20211017063353 9 92 0.0 3.2 0.00 0.00 0.00 45 1024.1
20211017062853 9 92 0.0 4.8 0.00 0.00 0.00 45 1024.1
20211017062351 9 3 1.6 4.8 0.00 0.00 0.00 45 1024.2
20211017061852 9 3 0.0 3.2 0.00 0.00 0.00 44 1024.4
20211017061351 9 3 0.0 4.8 0.00 0.00 0.00 44 1024.5
20211017060851 9 3 1.6 4.8 0.00 0.00 0.00 44 1024.4
20211017060351 9 42 1.6 4.8 0.00 0.00 0.00 43 1024.4
20211017055850 9 44 3.2 6.4 0.00 0.00 0.00 44 1024.4
20211017055352 9 37 3.2 6.4 0.00 0.00 0.00 44 1024.5
20211017054850 9 85 3.2 4.8 0.00 0.00 0.00 45 1024.5
20211017054350 9 93 3.2 4.8 0.00 0.00 0.00 44 1024.7
20211017053851 9 107 3.2 4.8 0.00 0.00 0.00 44 1024.6
20211017053351 9 109 3.2 4.8 0.00 0.00 0.00 43 1024.7
20211017052851 9 55 0.0 0.0 0.00 0.00 0.00 43 1024.6
20211017052351 9 54 0.0 0.0 0.00 0.00 0.00 43 1024.6
20211017051851 10 54 0.0 0.0 0.00 0.00 0.00 42 1024.7
20211017051351 10 54 0.0 0.0 0.00 0.00 0.00 42 1024.8
20211017050849 10 54 0.0 3.2 0.00 0.00 0.00 41 1024.8
20211017050351 10 54 1.6 3.2 0.00 0.00 0.00 41 1024.7
20211017045850 10 54 1.6 3.2 0.00 0.00 0.00 41 1024.6
20211017045348 10 54 0.0 3.2 0.00 0.00 0.00 41 1024.6
20211017044848 10 54 0.0 3.2 0.00 0.00 0.00 40 1024.8
20211017044350 -17 0.0 0.0 0.00 0.00 0.00 1024.8
20211017043848 10 63 1.6 3.2 0.00 0.00 0.00 42 1024.8
20211017043348 10 63 1.6 3.2 0.00 0.00 0.00 42 1024.8
20211017042848 10 63 1.6 3.2 0.00 0.00 0.00 42 1024.8
20211017042347 10 97 3.2 4.8 0.00 0.00 0.00 44 1024.9
20211017041846 10 97 3.2 4.8 0.00 0.00 0.00 44 1024.9
20211017041346 9 73 0.0 0.0 0.00 0.00 0.00 44 1025.1
20211017040846 9 73 0.0 0.0 0.00 0.00 0.00 45 1025.1
20211017040346 9 73 0.0 0.0 0.00 0.00 0.00 45 1025.3
20211017035846 9 73 0.0 0.0 0.00 0.00 0.00 44 1025.2
20211017035344 9 73 0.0 0.0 0.00 0.00 0.00 43 1025.3
20211017034845 8 73 0.0 0.0 0.00 0.00 0.00 45 1025.2
20211017034346 -17 73 1.6 3.2 0.00 0.00 0.00 1025.3
20211017033844 8 73 1.6 3.2 0.00 0.00 0.00 47 1025.3
20211017033344 8 73 1.6 4.8 0.00 0.00 0.00 47 1025.2
20211017032842 8 73 1.6 4.8 0.00 0.00 0.00 48 1025.2
20211017032343 9 73 3.2 4.8 0.00 0.00 0.00 47 1025.2
20211017031843 9 73 3.2 4.8 0.00 0.00 0.00 47 1025.3
20211017031344 9 73 3.2 4.8 0.00 0.00 0.00 45 1025.3
20211017030843 9 73 3.2 3.2 0.00 0.00 0.00 45 1025.2
20211017030342 9 73 0.0 3.2 0.00 0.00 0.00 45 1025.2
20211017025843 9 73 0.0 3.2 0.00 0.00 0.00 45 1025.2
20211017025342 9 73 0.0 0.0 0.00 0.00 0.00 46 1025.3
20211017024842 9 73 0.0 0.0 0.00 0.00 0.00 46 1025.4
20211017024343 9 73 0.0 0.0 0.00 0.00 0.00 45 1025.4
20211017023842 9 73 0.0 0.0 0.00 0.00 0.00 46 1025.5
20211017023342 9 73 0.0 0.0 0.00 0.00 0.00 46 1025.5
20211017022842 9 73 0.0 0.0 0.00 0.00 0.00 46 1025.5
20211017022342 9 73 0.0 0.0 0.00 0.00 0.00 46 1025.6
20211017021843 9 73 0.0 0.0 0.00 0.00 0.00 46 1025.6
20211017021341 9 73 0.0 0.0 0.00 0.00 0.00 47 1025.8
20211017020843 9 73 0.0 0.0 0.00 0.00 0.00 48 1025.8
20211017020341 9 73 0.0 0.0 0.00 0.00 0.00 47 1025.9
20211017015841 9 73 0.0 0.0 0.00 0.00 0.00 48 1025.9
20211017015342 9 73 0.0 0.0 0.00 0.00 0.00 47 1025.8
20211017014841 9 73 0.0 0.0 0.00 0.00 0.00 47 1025.9
20211017014343 10 73 0.0 1.6 0.00 0.00 0.00 47 1025.9
20211017013842 10 73 0.0 1.6 0.00 0.00 0.00 47 1026.0
20211017013342 10 73 0.0 0.0 0.00 0.00 0.00 46 1026.0
20211017012841 10 73 0.0 3.2 0.00 0.00 0.00 46 1026.1
20211017012340 10 73 0.0 3.2 0.00 0.00 0.00 46 1026.1
20211017011841 10 73 3.2 4.8 0.00 0.00 0.00 45 1026.0
20211017011338 10 73 1.6 4.8 0.00 0.00 0.00 46 1026.1
20211017010838 10 73 3.2 6.4 0.00 0.00 0.00 45 1026.0
20211017010338 10 75 4.8 6.4 0.00 0.00 0.00 45 1026.2
20211017005837 10 73 3.2 4.8 0.00 0.00 0.00 45 1026.2
20211017005339 11 48 3.2 4.8 0.00 0.00 0.00 44 1026.3
20211017004840 11 348 0.0 0.0 0.00 0.00 0.00 43 1026.2
20211017004337 11 341 0.0 0.0 0.00 0.00 0.00 43 1026.3
20211017003836 11 341 0.0 0.0 0.00 0.00 0.00 42 1026.2
20211017003337 11 324 0.0 0.0 0.00 0.00 0.00 41 1026.3
20211017002837 11 324 0.0 3.2 0.00 0.00 0.00 41 1026.2
20211017002336 12 324 1.6 3.2 0.00 0.00 0.00 40 1026.3
20211017001837 12 324 0.0 6.4 0.00 0.00 0.00 40 1026.5
20211017001336 12 324 0.0 6.4 0.00 0.00 0.00 40 1026.3
20211017000837 12 285 1.6 4.8 0.00 0.00 0.00 40 1026.6
20211017000339 12 282 0.0 4.8 0.00 0.00 0.00 40 1026.5
20211016235837 12 285 0.0 6.4 0.00 0.00 0.00 39 1026.5
20211016235337 12 265 3.2 6.4 0.00 0.00 0.00 39 1026.6
20211016234837 12 306 1.6 8.0 0.00 0.00 0.00 39 1026.6
20211016234335 12 288 3.2 8.0 0.00 0.00 0.00 37 1026.6
20211016233833 12 334 0.0 6.4 0.00 0.00 0.00 38 1026.7
20211016233336 12 341 4.8 8.0 0.00 0.00 0.00 38 1026.8
20211016232836 12 316 3.2 8.0 0.00 0.00 0.00 39 1026.8
20211016232337 12 258 1.6 6.4 0.00 0.00 0.00 38 1026.8
20211016231836 12 310 3.2 6.4 0.00 0.00 0.00 37 1026.7
20211016231334 13 306 1.6 6.4 0.00 0.00 0.00 38 1026.8
20211016230836 13 307 1.6 6.4 0.00 0.00 0.00 37 1026.8
20211016230334 13 282 1.6 6.4 0.00 0.00 0.00 38 1026.9
20211016225837 13 307 1.6 4.8 0.00 0.00 0.00 37 1026.9
20211016225335 13 320 1.6 4.8 0.00 0.00 0.00 38 1027.0
20211016224836 13 264 1.6 4.8 0.00 0.00 0.00 38 1027.0
20211016224334 13 307 3.2 6.4 0.00 0.00 0.00 38 1027.1
20211016223834 13 307 3.2 6.4 0.00 0.00 0.00 38 1027.1
20211016223334 12 298 3.2 4.8 0.00 0.00 0.00 39 1027.3
20211016222832 12 279 3.2 9.7 0.00 0.00 0.00 39 1027.1
20211016222332 12 279 4.8 9.7 0.00 0.00 0.00 38 1027.3
20211016221834 12 329 4.8 6.4 0.00 0.00 0.00 38 1027.1
20211016221335 12 4 3.2 6.4 0.00 0.00 0.00 38 1027.1
20211016220832 12 307 3.2 6.4 0.00 0.00 0.00 38 1027.4
20211016220332 12 283 4.8 9.7 0.00 0.00 0.00 37 1027.4
20211016215832 13 307 3.2 9.7 0.00 0.00 0.00 37 1027.5
20211016215333 13 272 3.2 8.0 0.00 0.00 0.00 37 1027.5
20211016214832 13 326 3.2 8.0 0.00 0.00 0.00 37 1027.6
20211016214331 13 317 4.8 8.0 0.00 0.00 0.00 36 1027.6
20211016213831 13 316 3.2 8.0 0.00 0.00 0.00 37 1027.7
20211016213331 13 213 3.2 9.7 0.00 0.00 0.00 37 1027.7
20211016212832 13 276 3.2 9.7 0.00 0.00 0.00 37 1027.8
20211016212331 13 316 4.8 8.0 0.00 0.00 0.00 36 1027.8
20211016211831 13 289 0.0 8.0 0.00 0.00 0.00 35 1027.8
20211016211329 13 271 3.2 4.8 0.00 0.00 0.00 38 1027.8
20211016210830 12 6 3.2 9.7 0.00 0.00 0.00 37 1028.0
20211016210328 12 298 3.2 9.7 0.00 0.00 0.00 38 1028.1
20211016205830 12 343 3.2 8.0 0.00 0.00 0.00 39 1028.1
20211016205329 12 264 1.6 8.0 0.00 0.00 0.00 38 1028.2
20211016204830 12 312 3.2 8.0 0.00 0.00 0.00 38 1028.2
20211016204329 12 279 3.2 8.0 0.00 0.00 0.00 39 1028.4
20211016203829 12 271 3.2 8.0 0.00 0.00 0.00 38 1028.3
20211016203327 12 312 4.8 8.0 0.00 0.00 0.00 38 1028.5
20211016202829 12 299 3.2 8.0 0.00 0.00 0.00 39 1028.5
20211016202329 12 329 3.2 8.0 0.00 0.00 0.00 38 1028.5
20211016201830 12 348 3.2 6.4 0.00 0.00 0.00 39 1028.5
20211016201327 11 28 3.2 4.8 0.00 0.00 0.00 38 1028.8
20211016200826 11 314 3.2 4.8 0.00 0.00 0.00 40 1028.9
20211016200327 11 293 1.6 4.8 0.00 0.00 0.00 40 1029.0
20211016195828 11 330 1.6 4.8 0.00 0.00 0.00 40 1028.9
20211016195327 10 321 1.6 6.4 0.00 0.00 0.00 41 1029.1
20211016194826 10 228 1.6 6.4 0.00 0.00 0.00 41 1029.2
20211016194326 10 313 1.6 4.8 0.00 0.00 0.00 43 1029.4
20211016193825 10 244 1.6 8.0 0.00 0.00 0.00 41 1029.5
20211016193328 10 300 3.2 8.0 0.00 0.00 0.00 41 1029.6
20211016192827 10 279 1.6 6.4 0.00 0.00 0.00 41 1029.7
20211016192325 9 307 1.6 4.8 0.00 0.00 0.00 42 1029.7
20211016191827 9 259 1.6 4.8 0.00 0.00 0.00 42 1029.7
20211016191327 9 295 1.6 4.8 0.00 0.00 0.00 44 1029.8
20211016190825 9 282 0.0 3.2 0.00 0.00 0.00 45 1029.9
20211016190324 9 282 0.0 3.2 0.00 0.00 0.00 45 1030.1
20211016185826 9 282 0.0 0.0 0.00 0.00 0.00 46 1030.2
20211016185325 8 282 0.0 0.0 0.00 0.00 0.00 44 1030.3
20211016184826 8 283 0.0 3.2 0.00 0.00 0.00 46 1030.3
20211016184325 8 283 1.6 6.4 0.00 0.00 0.00 47 1030.3
20211016183824 8 3 0.0 6.4 0.00 0.00 0.00 48 1030.4
20211016183324 8 261 0.0 3.2 0.00 0.00 0.00 48 1030.5
20211016182824 7 262 0.0 3.2 0.00 0.00 0.00 48 1030.5
20211016182325 7 262 1.6 4.8 0.00 0.00 0.00 48 1030.5
20211016181825 7 264 1.6 4.8 0.00 0.00 0.00 48 1030.5
20211016181324 7 266 0.0 4.8 0.00 0.00 0.00 50 1030.6
20211016180825 7 265 1.6 4.8 0.00 0.00 0.00 50 1030.6
20211016180324 7 296 1.6 4.8 0.00 0.00 0.00 52 1030.5
20211016175824 6 178 0.0 3.2 0.00 0.00 0.00 52 1030.5
20211016175324 6 178 1.6 3.2 0.00 0.00 0.00 52 1030.6
20211016174825 6 178 0.0 1.6 0.00 0.00 0.00 53 1030.5
20211016174324 6 175 0.0 0.0 0.00 0.00 0.00 53 1030.5
20211016173822 6 175 0.0 0.0 0.00 0.00 0.00 53 1030.5
20211016173325 6 175 0.0 0.0 0.00 0.00 0.00 54 1030.5
20211016172825 6 175 0.0 0.0 0.00 0.00 0.00 54 1030.5
20211016172323 5 118 0.0 0.0 0.00 0.00 0.00 54 1030.5
20211016171823 5 118 0.0 0.0 0.00 0.00 0.00 54 1030.5
20211016171323 5 118 0.0 0.0 0.00 0.00 0.00 55 1030.6
20211016170823 5 118 0.0 0.0 0.00 0.00 0.00 56 1030.6
20211016170323 5 118 0.0 0.0 0.00 0.00 0.00 56 1030.8
20211016165822 5 118 0.0 0.0 0.00 0.00 0.00 56 1030.6
20211016165323 4 118 0.0 1.6 0.00 0.00 0.00 57 1030.6
20211016164824 4 118 0.0 1.6 0.00 0.00 0.00 57 1030.6
20211016164320 4 118 0.0 1.6 0.00 0.00 0.00 56 1030.8
20211016163821 3 118 0.0 1.6 0.00 0.00 0.00 56 1030.8
20211016163320 3 107 0.0 0.0 0.00 0.00 0.00 56 1030.8
20211016162820 3 107 0.0 0.0 0.00 0.00 0.00 57 1030.9
20211016162321 3 107 0.0 0.0 0.00 0.00 0.00 57 1030.8
20211016161821 3 107 0.0 0.0 0.00 0.00 0.00 57 1030.8
20211016161321 3 107 0.0 0.0 0.00 0.00 0.00 57 1030.8
20211016160819 3 107 0.0 0.0 0.00 0.00 0.00 57 1030.9
20211016160321 3 107 0.0 0.0 0.00 0.00 0.00 57 1030.9
20211016155820 2 107 0.0 0.0 0.00 0.00 0.00 56 1030.9
20211016155320 2 107 0.0 0.0 0.00 0.00 0.00 56 1030.9
20211016154819 2 107 0.0 0.0 0.00 0.00 0.00 54 1030.9
20211016154320 2 107 0.0 0.0 0.00 0.00 0.00 54 1030.8
20211016153817 2 107 0.0 0.0 0.00 0.00 0.00 55 1030.9
20211016153319 2 107 0.0 0.0 0.00 0.00 0.00 53 1030.9
20211016152817 3 107 0.0 0.0 0.00 0.00 0.00 53 1030.9
20211016152315 3 107 0.0 0.0 0.00 0.00 0.00 51 1030.9
20211016151817 2 107 0.0 0.0 0.00 0.00 0.00 50 1030.9
20211016151317 2 107 0.0 0.0 0.00 0.00 0.00 50 1030.9
20211016150817 2 106 0.0 0.0 0.00 0.00 0.00 51 1030.8
20211016150318 2 106 0.0 0.0 0.00 0.00 0.00 52 1030.9
20211016145816 2 106 0.0 0.0 0.00 0.00 0.00 52 1030.8
20211016145318 3 107 0.0 0.0 0.00 0.00 0.00 52 1030.8